DW8500 Weather Reports


Display with metric or nautical units.
time (UTC)temp
F
wind
direction
speed
MPH
gust
MPH
rain 1hr
in
rain 24hr
in
rain mn
in
humidity
%
barometer
mb
20260506062145 61 136 0.0 1.0 0.00 0.00 0.00 53 1008.7
20260506061647 62 136 0.0 1.0 0.00 0.00 0.00 53 1008.8
20260506061227 62 136 0.0 1.0 0.00 0.00 0.00 52 1008.8
20260506060725 63 136 0.0 1.0 0.00 0.00 0.00 51 1008.8
20260506060256 63 171 0.0 2.0 0.00 0.00 0.00 51 1008.8
20260506051305 63 260 0.0 4.0 0.00 0.00 0.00 51 1008.8
20260506050803 63 118 0.0 4.0 0.00 0.00 0.00 51 1008.8
20260506050257 62 91 0.0 2.0 0.00 0.00 0.00 51 1008.9
20260506044755 62 158 0.0 0.0 0.00 0.00 0.00 51 1009.1
20260506044255 62 158 0.0 1.0 0.00 0.00 0.00 51 1009.1
20260506043754 63 158 0.0 1.0 0.00 0.00 0.00 50 1009.1
20260506043254 63 198 0.0 1.0 0.00 0.00 0.00 50 1009.1
20260506042756 63 198 0.0 0.0 0.00 0.00 0.00 49 1009.1
20260506042314 64 238 0.0 2.0 0.00 0.00 0.00 49 1009.1
20260506041753 64 116 0.0 2.0 0.00 0.00 0.00 48 1009.0
20260506041513 64 274 0.0 1.0 0.00 0.00 0.00 48 1008.7
20260506041307 64 155 0.0 2.0 0.00 0.00 0.00 48 1009.1
20260506040804 64 153 0.0 2.0 0.00 0.00 0.00 47 1009.1
20260506040258 65 243 0.0 2.0 0.00 0.00 0.00 47 1009.0
20260506035756 65 148 0.0 4.0 0.00 0.00 0.00 47 1009.1
20260506035255 65 280 0.0 5.0 0.00 0.00 0.00 46 1009.1
20260506034756 65 231 1.0 5.0 0.00 0.00 0.00 46 1009.1
20260506034253 65 129 1.0 3.0 0.00 0.00 0.00 46 1009.1
20260506033753 65 109 0.0 4.0 0.00 0.00 0.00 46 1009.1
20260506033251 65 141 1.0 4.0 0.00 0.00 0.00 46 1009.1
20260506032753 65 263 0.0 5.0 0.00 0.00 0.00 46 1009.0
20260506032407 65 121 1.0 5.0 0.00 0.00 0.00 46 1009.0
20260506031821 66 240 1.0 4.0 0.00 0.00 0.00 46 1009.0
20260506031256 65 94 1.0 2.0 0.00 0.00 0.00 46 1009.0
20260506030755 65 124 1.0 2.0 0.00 0.00 0.00 46 1009.0
20260506030254 66 150 0.0 1.0 0.00 0.00 0.00 46 1009.1
20260506025756 66 176 0.0 2.0 0.00 0.00 0.00 45 1009.1
20260506025315 66 105 1.0 2.0 0.00 0.00 0.00 45 1009.1
20260506024814 66 102 1.0 2.0 0.00 0.00 0.00 45 1008.9
20260506024541 66 119 0.0 3.0 0.00 0.00 0.00 44 1008.7
20260506024326 66 293 0.0 3.0 0.00 0.00 0.00 45 1009.1
20260506023802 66 245 1.0 3.0 0.00 0.00 0.00 45 1009.0
20260506023258 66 243 1.0 3.0 0.00 0.00 0.00 45 1009.1
20260506023019 65 273 0.0 3.0 0.00 0.00 0.00 46 1008.7
20260506022820 66 231 0.0 2.0 0.00 0.00 0.00 46 1009.0
20260506022256 66 245 0.0 1.0 0.00 0.00 0.00 45 1009.0
20260506021815 67 245 1.0 1.0 0.00 0.00 0.00 45 1009.0
20260506021253 67 105 0.0 1.0 0.00 0.00 0.00 44 1009.0
20260506020754 67 105 0.0 1.0 0.00 0.00 0.00 43 1009.0
20260506020327 68 105 0.0 1.0 0.00 0.00 0.00 43 1009.1
20260506020026 68 105 0.0 1.0 0.00 0.00 0.00 42 1008.6
20260506015824 69 105 0.0 2.0 0.00 0.00 0.00 42 1009.0
20260506015256 69 105 0.0 2.0 0.00 0.00 0.00 40 1009.0
20260506014755 69 248 1.0 3.0 0.00 0.00 0.00 40 1009.0
20260506014252 69 272 1.0 3.0 0.00 0.00 0.00 40 1009.0
20260506013751 70 264 1.0 3.0 0.00 0.00 0.00 40 1008.9
20260506013248 70 256 0.0 1.0 0.00 0.00 0.00 39 1008.9
20260506012751 71 108 0.0 2.0 0.00 0.00 0.00 38 1008.8
20260506012328 71 108 1.0 3.0 0.00 0.00 0.00 37 1008.9
20260506011822 71 205 0.0 7.0 0.00 0.00 0.00 37 1008.8
20260506011256 72 258 2.0 7.0 0.00 0.00 0.00 36 1008.8
20260506010756 72 124 2.0 6.0 0.00 0.00 0.00 36 1008.7
20260506010255 72 235 1.0 5.0 0.00 0.00 0.00 36 1008.6
20260506005756 72 125 1.0 8.0 0.00 0.00 0.00 35 1008.5
20260506005254 73 228 2.0 13.0 0.00 0.00 0.00 35 1008.7
20260506004755 73 254 3.0 13.0 0.00 0.00 0.00 35 1008.7
20260506004253 73 229 2.0 10.0 0.00 0.00 0.00 34 1008.7
20260506003753 73 281 1.0 8.0 0.00 0.00 0.00 34 1008.6
20260506003253 73 324 2.0 8.0 0.00 0.00 0.00 34 1008.5
20260506002753 74 259 2.0 10.0 0.00 0.00 0.00 34 1008.3
20260506002249 74 98 2.0 10.0 0.00 0.00 0.00 34 1008.0
20260506001827 74 132 1.0 5.0 0.00 0.00 0.00 34 1007.8
20260506001504 73 278 1.0 6.0 0.00 0.00 0.00 34 1007.1
20260506001303 74 87 2.0 10.0 0.00 0.00 0.00 34 1007.4
20260506000759 74 225 3.0 10.0 0.00 0.00 0.00 33 1007.2
20260506000302 74 115 2.0 12.0 0.00 0.00 0.00 32 1006.9
20260505235759 74 338 4.0 12.0 0.00 0.00 0.00 32 1006.6
20260505235257 74 250 2.0 8.0 0.00 0.00 0.00 32 1006.6
20260505234756 74 61 2.0 8.0 0.00 0.00 0.00 32 1006.6
20260505234526 74 267 2.0 8.0 0.00 0.00 0.00 32 1006.1
20260505234315 75 89 1.0 11.0 0.00 0.00 0.00 32 1006.6
20260505233755 75 266 2.0 11.0 0.00 0.00 0.00 31 1006.3
20260505233252 75 146 1.0 10.0 0.00 0.00 0.00 31 1006.3
20260505232751 75 260 3.0 10.0 0.00 0.00 0.00 30 1006.1
20260505232307 76 176 2.0 11.0 0.00 0.00 0.00 29 1006.1
20260505231823 76 120 4.0 11.0 0.00 0.00 0.00 29 1006.0
20260505231256 76 117 2.0 8.0 0.00 0.00 0.00 29 1006.0
20260505230757 76 4 2.0 11.0 0.00 0.00 0.00 29 1005.9
20260505230255 76 228 4.0 11.0 0.00 0.00 0.00 28 1005.8
20260505230032 76 137 2.0 13.0 0.00 0.00 0.00 28 1005.4
20260505225814 77 93 3.0 16.0 0.00 0.00 0.00 28 1005.8
20260505225251 77 141 6.0 17.0 0.00 0.00 0.00 27 1005.9
20260505224752 77 115 4.0 17.0 0.00 0.00 0.00 27 1005.7
20260505224253 77 249 3.0 12.0 0.00 0.00 0.00 27 1005.7
20260505223750 78 232 4.0 18.0 0.00 0.00 0.00 26 1005.6
20260505223307 78 272 4.0 18.0 0.00 0.00 0.00 27 1005.5
20260505223006 78 254 2.0 10.0 0.00 0.00 0.00 26 1005.1
20260505222805 78 255 2.0 15.0 0.00 0.00 0.00 26 1005.6
20260505222322 79 307 4.0 18.0 0.00 0.00 0.00 26 1005.4
20260505221758 79 222 5.0 18.0 0.00 0.00 0.00 26 1005.3
20260505221257 79 273 4.0 11.0 0.00 0.00 0.00 25 1005.3
20260505220818 80 289 5.0 11.0 0.00 0.00 0.00 25 1005.1
20260505220256 80 240 6.0 19.0 0.00 0.00 0.00 24 1005.2
20260505215756 80 255 8.0 21.0 0.00 0.00 0.00 24 1005.2
20260505215253 80 281 7.0 21.0 0.00 0.00 0.00 24 1005.1
20260505214749 80 218 5.0 16.0 0.00 0.00 0.00 24 1005.1
20260505214507 80 269 3.0 15.0 0.00 0.00 0.00 24 1004.5
20260505214305 80 79 3.0 10.0 0.00 0.00 0.00 23 1004.9
20260505213804 80 235 5.0 14.0 0.00 0.00 0.00 23 1004.8
20260505213300 81 232 4.0 14.0 0.00 0.00 0.00 23 1004.8
20260505213001 80 230 5.0 14.0 0.00 0.00 0.00 23 1004.4
20260505212800 81 240 7.0 14.0 0.00 0.00 0.00 22 1004.6
20260505212257 81 252 3.0 14.0 0.00 0.00 0.00 22 1004.7
20260505211818 81 140 3.0 15.0 0.00 0.00 0.00 22 1004.5
20260505211254 81 259 6.0 15.0 0.00 0.00 0.00 21 1004.6
20260505210754 82 281 5.0 14.0 0.00 0.00 0.00 21 1004.6
20260505210254 82 224 6.0 18.0 0.00 0.00 0.00 21 1004.6
20260505205754 82 246 6.0 18.0 0.00 0.00 0.00 21 1004.5
20260505205309 82 167 3.0 11.0 0.00 0.00 0.00 21 1004.5
20260505204749 82 221 5.0 22.0 0.00 0.00 0.00 21 1004.6
20260505204257 82 232 6.0 22.0 0.00 0.00 0.00 21 1004.8
20260505203756 82 252 4.0 14.0 0.00 0.00 0.00 21 1004.8
20260505203251 83 212 4.0 17.0 0.00 0.00 0.00 21 1004.7
20260505202751 83 164 4.0 17.0 0.00 0.00 0.00 21 1004.7
20260505202248 83 150 3.0 17.0 0.00 0.00 0.00 20 1004.7
20260505201748 83 238 3.0 15.0 0.00 0.00 0.00 20 1004.7
20260505201512 83 255 5.0 15.0 0.00 0.00 0.00 19 1004.5
20260505201306 83 271 5.0 15.0 0.00 0.00 0.00 20 1004.6
20260505200801 83 180 4.0 16.0 0.00 0.00 0.00 20 1004.8
20260505200256 83 115 5.0 16.0 0.00 0.00 0.00 19 1004.7
20260505195755 83 268 5.0 14.0 0.00 0.00 0.00 19 1004.8
20260505195253 83 188 5.0 17.0 0.00 0.00 0.00 19 1004.9
20260505194754 83 341 5.0 19.0 0.00 0.00 0.00 19 1004.9
20260505194251 83 229 8.0 19.0 0.00 0.00 0.00 17 1004.7
20260505193812 84 260 5.0 20.0 0.00 0.00 0.00 18 1004.7
20260505193248 84 213 6.0 20.0 0.00 0.00 0.00 17 1004.8
20260505193010 83 319 3.0 16.0 0.00 0.00 0.00 17 1004.5
20260505192809 84 113 7.0 16.0 0.00 0.00 0.00 18 1004.6
20260505192246 84 146 6.0 17.0 0.00 0.00 0.00 17 1004.8
20260505191747 84 161 7.0 17.0 0.00 0.00 0.00 18 1004.8
20260505191502 83 226 7.0 17.0 0.00 0.00 0.00 17 1004.5
20260505191301 84 80 6.0 17.0 0.00 0.00 0.00 18 1004.8
20260505190758 84 255 4.0 14.0 0.00 0.00 0.00 19 1004.8
20260505190255 83 161 5.0 18.0 0.00 0.00 0.00 19 1005.1
20260505185754 83 230 8.0 18.0 0.00 0.00 0.00 18 1005.0
20260505185314 84 284 4.0 17.0 0.00 0.00 0.00 19 1005.0
20260505184754 83 184 5.0 18.0 0.00 0.00 0.00 20 1005.4
20260505184249 83 155 5.0 14.0 0.00 0.00 0.00 19 1005.4
20260505183749 83 123 5.0 18.0 0.00 0.00 0.00 19 1005.5
20260505183246 83 212 7.0 18.0 0.00 0.00 0.00 19 1005.8
20260505182746 83 247 6.0 17.0 0.00 0.00 0.00 19 1006.0
20260505182305 82 254 7.0 17.0 0.00 0.00 0.00 19 1005.9
20260505181802 82 261 7.0 16.0 0.00 0.00 0.00 21 1006.0
20260505181338 82 253 4.0 16.0 0.00 0.00 0.00 21 1006.0
20260505180752 82 82 4.0 19.0 0.00 0.00 0.00 22 1005.9
20260505180249 82 140 3.0 19.0 0.00 0.00 0.00 23 1006.1
20260505175748 82 269 6.0 14.0 0.00 0.00 0.00 22 1006.0
20260505175306 82 157 4.0 14.0 0.00 0.00 0.00 23 1006.1
20260505174804 82 247 5.0 16.0 0.00 0.00 0.00 22 1006.2
20260505174258 82 319 5.0 16.0 0.00 0.00 0.00 22 1006.3
20260505173814 83 265 8.0 16.0 0.00 0.00 0.00 20 1006.5
20260505173312 82 253 4.0 12.0 0.00 0.00 0.00 24 1006.4
20260505172750 82 293 4.0 10.0 0.00 0.00 0.00 23 1006.3
20260505172246 82 81 3.0 14.0 0.00 0.00 0.00 24 1006.3
20260505171748 82 276 4.0 16.0 0.00 0.00 0.00 24 1006.3
20260505171245 82 293 6.0 16.0 0.00 0.00 0.00 22 1006.3
20260505170806 82 65 5.0 13.0 0.00 0.00 0.00 22 1006.6
20260505170323 82 245 5.0 20.0 0.00 0.00 0.00 23 1006.6
20260505170025 82 233 5.0 20.0 0.00 0.00 0.00 22 1006.5
20260505165823 82 262 6.0 20.0 0.00 0.00 0.00 23 1006.8
20260505164813 81 169 6.0 16.0 0.00 0.00 0.00 24 1006.9
20260505164252 81 55 3.0 11.0 0.00 0.00 0.00 24 1006.9
20260505163752 82 236 4.0 11.0 0.00 0.00 0.00 24 1007.1
20260505163249 81 358 2.0 10.0 0.00 0.00 0.00 24 1007.4
20260505162750 80 200 2.0 12.0 0.00 0.00 0.00 26 1007.5
20260505162248 80 259 3.0 12.0 0.00 0.00 0.00 26 1007.5
20260505161750 80 317 4.0 10.0 0.00 0.00 0.00 26 1007.7
20260505161245 79 239 5.0 10.0 0.00 0.00 0.00 26 1007.8
20260505160805 79 132 5.0 10.0 0.00 0.00 0.00 27 1007.9
20260505160301 79 274 4.0 9.0 0.00 0.00 0.00 27 1007.9
20260505153310 76 307 2.0 10.0 0.00 0.00 0.00 31 1008.6
20260505152749 75 120 3.0 10.0 0.00 0.00 0.00 31 1008.7
20260505152254 76 283 4.0 11.0 0.00 0.00 0.00 30 1008.7
20260505151815 76 152 5.0 11.0 0.00 0.00 0.00 30 1008.8
20260505151251 76 279 5.0 13.0 0.00 0.00 0.00 31 1008.8
20260505150752 75 83 5.0 13.0 0.00 0.00 0.00 32 1008.7
20260505150247 74 238 4.0 12.0 0.00 0.00 0.00 33 1008.7
20260505140251 69 123 1.0 6.0 0.00 0.00 0.00 39 1009.0
20260505130248 63 231 1.0 5.0 0.00 0.00 0.00 46 1009.1
20260505124755 62 158 1.0 3.0 0.00 0.00 0.00 48 1009.1
20260505124252 61 197 1.0 3.0 0.00 0.00 0.00 49 1009.2
20260505123814 60 260 0.0 4.0 0.00 0.00 0.00 50 1009.2
20260505123250 60 238 1.0 4.0 0.00 0.00 0.00 50 1009.3
20260505123023 59 202 1.0 4.0 0.00 0.00 0.00 50 1009.1
20260505122810 59 174 0.0 2.0 0.00 0.00 0.00 51 1009.2
20260505122309 59 173 0.0 4.0 0.00 0.00 0.00 52 1009.2
20260505121747 58 244 0.0 4.0 0.00 0.00 0.00 53 1009.1
20260505121245 57 224 1.0 3.0 0.00 0.00 0.00 52 1009.3
20260505120746 57 272 1.0 3.0 0.00 0.00 0.00 53 1009.4
20260505120301 57 231 1.0 2.0 0.00 0.00 0.00 53 1009.4
20260505120003 56 248 0.0 3.0 0.00 0.00 0.00 54 1009.2
20260505115759 56 192 1.0 3.0 0.00 0.00 0.00 54 1009.5
20260505115256 56 189 1.0 3.0 0.00 0.00 0.00 54 1009.3
20260505114747 55 221 0.0 2.0 0.00 0.00 0.00 56 1009.1
20260505114505 54 124 0.0 3.0 0.00 0.00 0.00 55 1009.2
20260505114304 54 259 1.0 3.0 0.00 0.00 0.00 56 1009.3
20260505113803 54 210 1.0 3.0 0.00 0.00 0.00 56 1009.4
20260505113259 53 237 0.0 2.0 0.00 0.00 0.00 57 1009.5
20260505112759 53 233 0.0 3.0 0.00 0.00 0.00 57 1009.2
20260505112256 52 253 0.0 1.0 0.00 0.00 0.00 58 1009.1
20260505111753 52 164 0.0 1.0 0.00 0.00 0.00 60 1009.3
20260505111251 51 235 0.0 1.0 0.00 0.00 0.00 61 1009.1
20260505110749 51 233 0.0 1.0 0.00 0.00 0.00 61 1009.1
20260505110307 50 233 0.0 0.0 0.00 0.00 0.00 61 1009.1
20260505101807 49 233 0.0 0.0 0.00 0.00 0.00 60 1009.1
20260505101518 49 233 0.0 0.0 0.00 0.00 0.00 60 1008.9
20260505101305 49 233 0.0 0.0 0.00 0.00 0.00 60 1009.1
20260505100805 49 233 0.0 1.0 0.00 0.00 0.00 61 1009.0
20260505100358 49 233 0.0 1.0 0.00 0.00 0.00 60 1009.1
20260505095750 49 233 0.0 1.0 0.00 0.00 0.00 60 1009.0
20260505095245 49 233 0.0 0.0 0.00 0.00 0.00 60 1009.1
20260505094825 49 233 0.0 1.0 0.00 0.00 0.00 60 1009.0
20260505094259 49 233 0.0 1.0 0.00 0.00 0.00 60 1009.0
20260505093820 49 233 0.0 1.0 0.00 0.00 0.00 60 1009.1
20260505093256 49 233 0.0 1.0 0.00 0.00 0.00 60 1009.3
20260505092756 49 231 0.0 1.0 0.00 0.00 0.00 60 1009.2
20260505092255 49 231 0.0 1.0 0.00 0.00 0.00 60 1009.2
20260505091815 49 231 0.0 0.0 0.00 0.00 0.00 60 1009.2
20260505091249 49 231 0.0 1.0 0.00 0.00 0.00 60 1009.2
20260505090750 49 231 0.0 1.0 0.00 0.00 0.00 60 1009.2
20260505090249 49 231 0.0 1.0 0.00 0.00 0.00 61 1009.2
20260505085751 48 231 0.0 1.0 0.00 0.00 0.00 61 1009.2
20260505085248 48 228 0.0 1.0 0.00 0.00 0.00 61 1009.3
20260505084749 48 228 0.0 1.0 0.00 0.00 0.00 61 1009.3
20260505084245 48 228 0.0 1.0 0.00 0.00 0.00 61 1009.2
20260505083306 48 228 0.0 0.0 0.00 0.00 0.00 60 1009.2
20260505083027 48 228 0.0 0.0 0.00 0.00 0.00 60 1009.1
20260505082826 48 228 0.0 0.0 0.00 0.00 0.00 60 1009.4
20260505081748 49 228 0.0 0.0 0.00 0.00 0.00 60 1009.4
20260505081502 48 228 0.0 0.0 0.00 0.00 0.00 60 1009.2
20260505081301 49 228 0.0 0.0 0.00 0.00 0.00 59 1009.5
20260505080801 49 228 0.0 0.0 0.00 0.00 0.00 59 1009.4
20260505080253 50 228 0.0 0.0 0.00 0.00 0.00 58 1009.5
20260505075754 50 228 0.0 0.0 0.00 0.00 0.00 57 1009.5
20260505075252 50 228 0.0 0.0 0.00 0.00 0.00 56 1009.4
20260505074812 51 228 0.0 0.0 0.00 0.00 0.00 56 1009.3
20260505074248 51 228 0.0 0.0 0.00 0.00 0.00 56 1009.4
20260505073808 52 228 0.0 0.0 0.00 0.00 0.00 55 1009.6
20260505073246 52 228 0.0 0.0 0.00 0.00 0.00 55 1009.6
20260505072744 52 228 0.0 0.0 0.00 0.00 0.00 54 1009.5
20260505072300 52 228 0.0 0.0 0.00 0.00 0.00 54 1009.6
20260505071800 52 228 0.0 0.0 0.00 0.00 0.00 54 1009.6
20260505071516 51 228 0.0 0.0 0.00 0.00 0.00 54 1009.4
20260505071315 52 228 0.0 0.0 0.00 0.00 0.00 54 1009.6
20260505070755 52 228 0.0 1.0 0.00 0.00 0.00 54 1009.5
20260505070253 53 228 0.0 1.0 0.00 0.00 0.00 53 1009.6
20260505065753 53 228 0.0 1.0 0.00 0.00 0.00 53 1009.6
20260505065250 53 222 0.0 1.0 0.00 0.00 0.00 53 1009.6